Wind_Speed
18 25 23 19 22 27 31 31 31 30 28 26 26 27 26 23 23 22 22 24 23 20 22 22 22 23 23 22 25 26 25 24 24 24 24 24 24 25 24 24 23 22 22
27 27 25 22 23 28 30 30 30 28 26 25 25 25 25 23 22 22 23 25 24 23 23 23 23 22 22 24 25 25 23 24 24 25 24 24 24 23 22 23 23 22 24
29 28 27 25 24 27 29 29 27 25 22 23 24 24 24 23 22 24 24 25 24 23 23 22 22 22 23 23 25 23 24 27 26 24 22 20 20 22 21 22 22 23 24
28 28 29 27 27 27 28 27 25 23 23 22 23 23 24 24 24 24 25 26 26 24 23 22 21 22 21 21 23 23 25 25 25 22 19 20 19 20 20 21 21 20 21
25 26 28 28 28 27 27 26 24 23 23 23 23 24 24 26 26 25 26 27 26 24 23 23 21 20 20 21 22 23 23 23 23 19 18 18 18 17 19 20 20 21 20
25 26 27 26 26 26 25 24 24 23 24 24 23 24 24 25 27 28 27 27 25 25 23 19 17 18 19 19 20 21 22 21 19 18 17 17 17 18 18 19 18 17 18
24 26 27 25 24 24 23 23 24 24 24 24 24 24 24 25 27 28 27 26 25 22 19 17 18 19 18 18 18 17 16 18 17 16 16 17 18 18 18 17 18 18 17
25 25 26 24 23 22 22 22 22 22 23 24 25 24 24 25 26 26 26 25 21 20 19 18 19 18 16 16 15 14 14 15 16 16 16 16 16 17 18 19 18 17 16
19 23 23 22 21 20 20 20 20 21 22 23 24 23 23 24 25 26 25 22 21 19 18 18 18 16 15 15 14 13 12 15 13 14 14 14 16 17 17 17 17 15 13
10 14 18 19 20 20 19 19 20 20 21 22 22 22 22 22 24 25 24 22 20 17 16 17 18 16 15 15 14 12 11 12 11 11 11 13 15 15 17 15 15 13 13
10 10 11 17 18 19 20 19 19 19 19 21 21 21 21 19 22 24 21 21 19 17 16 19 18 16 15 14 13 12 12 8 10 9 9 15 14 14 14 15 14 13 12
5 8 10 13 14 17 18 20 20 20 19 20 22 22 17 19 19 20 22 21 19 16 16 18 16 14 13 12 11 11 8 10 9 9 9 14 14 14 13 13 12 13 14
8 8 10 12 15 16 15 19 19 19 19 20 22 23 20 18 19 18 21 21 20 18 16 16 15 12 11 10 10 9 9 9 8 8 10 13 13 12 12 11 11 12 13
11 14 16 15 15 18 14 20 18 20 21 21 22 23 24 18 18 15 17 20 21 20 19 17 14 14 11 9 8 10 9 8 8 7 10 12 11 11 10 10 10 11 12
13 12 15 23 24 22 20 21 19 20 22 22 25 25 24 22 20 17 17 18 17 22 22 22 19 16 14 10 9 9 10 9 9 8 9 12 10 10 10 10 10 11 10
25 21 14 19 26 29 33 29 23 24 22 23 25 28 29 26 24 21 18 21 18 20 20 21 21 20 17 13 11 10 11 10 10 10 9 11 11 10 11 12 11 11 10
23 25 21 18 21 28 30 33 33 27 24 22 24 31 31 31 29 27 24 25 21 20 20 20 21 20 19 17 13 12 11 12 12 12 11 10 12 12 12 11 12 12 11
25 25 25 17 18 25 32 26 27 25 27 25 24 27 34 34 33 30 28 29 26 24 20 17 18 17 16 16 14 12 13 13 14 14 14 13 12 12 14 14 10 11 12
27 27 26 22 16 11 26 32 30 29 29 31 33 35 30 34 35 32 28 27 30 27 26 21 17 17 15 15 14 12 12 13 15 14 16 16 15 14 13 16 14 13 13
27 27 26 24 23 19 11 26 30 30 27 31 37 36 31 31 34 33 29 27 30 28 26 26 23 18 14 15 14 12 11 13 14 16 16 16 16 17 15 14 16 16 17
27 29 28 27 27 25 23 16 21 27 30 28 33 36 36 38 36 37 30 30 32 27 28 31 27 22 17 15 11 10 11 13 16 17 16 17 18 18 18 17 16 16 17
28 28 28 27 26 25 25 20 18 15 25 32 30 33 35 38 42 40 39 29 29 26 26 29 30 20 20 18 14 11 6 13 17 19 19 20 21 19 20 21 20 19 17
31 29 27 26 27 24 26 24 19 13 20 20 30 33 35 38 41 44 39 34 30 31 28 31 33 28 22 20 23 13 6 8 9 16 23 22 22 22 22 23 24 25 22
29 28 26 25 26 25 25 23 21 14 18 12 25 30 32 34 35 40 40 37 35 33 31 30 30 31 27 24 19 28 15 3 6 4 12 22 23 24 24 24 24 27 29
25 27 27 26 26 26 26 22 20 20 17 19 15 21 30 26 32 33 39 39 39 39 40 35 33 37 31 29 27 18 29 20 12 8 5 9 17 24 26 26 25 26 28
23 27 27 28 28 28 27 25 23 22 22 22 21 17 13 24 26 29 31 36 40 37 38 40 40 35 38 34 31 29 25 27 25 17 10 8 12 14 25 26 26 27 28
Wind_Direction
151 152 156 156 153 155 154 153 150 146 142 136 133 133 131 129 125 120 117 114 110 112 108 108 107 105 103 104 108 105 101 98 97 99 98 94 93 92 92 89 87 89 92
147 151 154 157 152 155 154 152 149 146 142 137 136 136 135 132 128 123 116 111 111 112 111 112 110 110 109 111 110 107 110 108 106 99 92 96 97 96 96 91 93 95 93
144 148 153 156 151 156 154 152 150 146 143 141 139 139 137 134 129 124 119 115 116 114 112 111 112 111 115 113 112 111 109 108 102 97 99 96 94 98 97 96 92 95 97
143 146 152 156 153 153 152 153 152 150 147 145 143 141 137 133 127 126 122 121 118 118 117 113 112 115 116 116 115 114 113 109 108 101 99 97 96 96 98 98 99 96 95
142 147 151 156 156 154 152 152 153 152 149 146 144 140 138 136 132 128 126 122 121 121 120 116 113 118 118 118 119 120 115 114 110 103 105 104 101 99 99 96 91 91 92
147 150 153 157 158 155 152 153 153 152 150 147 144 141 140 139 137 133 129 127 129 126 123 121 118 122 123 123 122 122 121 120 108 107 105 105 107 112 107 104 103 108 108
149 153 157 160 163 158 153 154 153 153 152 149 145 143 143 143 142 139 136 134 132 129 125 124 126 127 127 129 130 129 132 118 114 113 113 113 118 119 117 113 113 108 104
153 155 159 163 166 163 157 156 156 155 154 152 148 147 146 146 146 143 140 137 136 130 127 123 127 128 130 135 136 135 136 124 118 119 119 122 127 123 118 118 113 109 108
156 158 160 164 169 168 163 160 160 159 158 157 153 151 149 150 150 148 146 143 140 134 132 130 130 128 132 136 137 137 137 131 124 126 124 126 132 125 122 120 116 118 127
148 161 166 169 173 172 169 168 165 165 164 163 159 155 152 152 155 155 154 151 147 139 136 139 134 128 130 133 135 139 139 134 125 127 130 133 133 131 128 127 133 136 137
164 171 176 180 182 181 175 174 171 170 169 169 166 163 158 154 159 162 163 161 155 147 140 145 140 133 130 131 134 137 135 139 136 137 138 146 140 139 145 148 147 142 128
179 195 193 190 191 191 185 181 179 177 176 177 176 173 170 167 166 167 169 169 165 159 148 149 151 147 141 142 146 145 142 145 140 144 147 152 151 152 151 152 153 145 137
216 214 215 207 204 200 196 192 187 186 186 187 186 184 181 177 175 173 173 175 173 169 161 159 161 163 165 157 163 165 157 150 154 154 162 163 165 159 154 156 153 149 142
248 222 218 215 222 210 209 205 201 196 194 194 195 194 191 189 187 187 184 183 180 179 176 176 176 176 179 179 176 180 173 164 167 166 169 172 171 167 160 158 159 154 147
346 287 253 233 225 217 214 216 209 206 204 201 201 202 200 199 198 195 198 194 191 189 187 185 186 189 191 194 196 195 193 187 183 175 173 176 178 178 172 170 170 160 158
355 345 319 253 238 229 223 220 216 212 211 208 207 207 209 207 206 203 204 203 203 199 197 195 193 194 196 198 201 204 207 204 200 194 185 186 189 191 186 183 176 176 169
358 351 343 291 242 236 233 229 219 215 215 214 215 214 214 214 213 211 208 209 208 209 206 202 200 201 199 202 206 211 218 219 212 209 199 191 199 201 202 201 192 186 184
1 0 357 353 262 240 237 230 227 220 215 218 221 221 217 219 217 216 215 214 213 213 214 212 208 208 208 208 210 219 224 218 216 215 211 204 200 204 209 213 216 201 201
0 360 2 5 355 277 246 237 233 228 223 224 228 230 224 220 221 219 220 218 215 216 218 219 220 217 216 215 216 222 223 215 218 216 217 217 213 209 209 220 218 217 219
1 1 2 4 6 354 292 244 240 230 229 224 232 235 231 224 223 223 222 222 219 216 218 219 220 225 223 224 223 227 226 219 217 218 220 220 222 220 219 216 217 223 227
7 3 2 0 1 5 355 336 242 233 231 230 232 237 237 232 226 224 224 225 223 220 219 221 222 222 224 226 217 231 235 233 228 224 220 221 225 225 225 223 220 222 230
3 3 359 357 356 357 356 344 314 274 237 237 231 234 235 238 233 228 226 224 225 221 224 225 221 217 221 212 214 227 230 237 235 229 224 224 227 226 228 227 226 226 227
2 1 358 355 352 354 353 353 335 287 259 233 234 238 234 238 238 234 230 226 226 225 224 226 226 220 222 215 208 213 216 235 221 223 225 225 225 225 228 229 231 231 229
358 357 360 358 355 353 356 355 352 338 332 276 236 234 232 237 236 236 232 229 228 230 226 227 228 227 223 226 216 221 228 209 220 220 226 225 225 226 229 229 231 234 234
0 359 359 1 360 356 354 358 353 346 334 321 333 248 246 229 241 238 237 232 229 230 235 227 224 228 225 225 225 222 224 230 235 248 229 216 228 229 231 233 233 234 236
2 1 360 359 0 358 356 353 355 351 347 343 334 318 300 244 240 242 240 235 234 228 231 232 230 226 227 225 230 228 225 220 227 228 237 231 232 235 234 233 233 234 236
Height
817 819 823 825 827 828 828 830 833 835 837 838 839 842 844 847 848 849 850 852 854 855 857 858 859 860 861 861 862 862 863 864 865 866 866 867 868 869 869 870 871 871 871
814 820 825 828 829 831 832 834 836 838 839 840 842 845 847 849 851 852 854 855 857 858 860 861 862 864 864 865 865 866 866 868 868 869 870 871 872 873 874 874 874 874 874
816 821 827 830 832 834 835 837 839 840 842 843 845 848 849 851 853 855 856 858 859 861 863 865 866 866 867 868 868 869 869 870 871 872 874 876 877 877 877 878 878 878 878
819 824 829 833 834 836 837 839 841 843 845 847 848 850 851 853 856 858 859 860 862 864 866 867 868 869 870 871 871 872 872 873 874 876 877 878 880 880 881 881 881 881 881
825 828 832 836 838 839 839 841 844 845 847 849 851 852 854 855 858 861 862 863 865 867 868 869 871 872 873 874 874 874 875 876 876 878 880 881 883 884 883 883 883 884 884
827 831 835 839 842 842 843 844 846 848 849 851 853 855 856 858 860 862 864 866 867 869 870 872 873 874 875 876 877 877 877 878 879 880 882 883 884 885 885 885 885 885 885
830 833 837 841 844 845 846 847 848 850 852 854 855 857 859 860 863 865 865 868 870 871 872 873 874 875 877 878 879 879 879 880 881 882 883 884 885 886 886 887 887 886 887
832 836 840 843 847 848 848 850 852 853 855 857 858 860 861 863 865 867 869 870 872 873 874 875 876 877 879 880 881 882 882 882 884 884 885 887 888 887 887 888 889 889 889
837 839 842 846 849 851 852 853 855 857 858 860 861 862 864 866 868 869 871 873 874 875 876 877 878 879 881 882 883 884 885 885 887 888 888 889 890 890 890 890 891 892 892
843 844 845 848 850 852 855 856 857 859 861 863 865 866 867 869 870 872 874 875 876 877 878 879 880 881 882 883 884 885 887 888 890 892 892 892 893 893 893 894 894 894 894
845 847 849 850 852 854 856 858 860 862 864 865 868 869 870 871 873 874 876 877 878 879 880 882 883 884 884 886 887 887 888 891 892 893 894 893 894 895 895 894 895 896 897
848 850 851 852 855 857 858 859 861 862 864 866 868 870 872 873 874 875 877 879 880 882 882 883 885 886 887 888 889 890 891 891 893 894 896 895 896 896 896 896 896 896 896
848 850 852 854 855 857 859 860 861 862 864 866 868 869 872 874 875 876 877 879 881 882 884 885 886 887 888 889 890 890 891 892 894 895 896 897 898 898 898 898 898 898 898
850 848 850 852 853 856 860 860 861 861 862 864 867 869 871 873 875 877 878 878 880 881 883 884 886 887 888 889 890 891 892 893 895 897 897 898 899 900 900 901 901 901 901
852 853 851 850 850 852 855 857 859 860 861 862 864 867 869 871 873 876 877 878 879 879 880 882 884 886 888 889 890 891 892 894 895 897 898 898 899 900 901 901 902 902 903
852 850 848 848 848 850 848 851 856 857 859 860 861 863 866 868 870 873 875 877 878 879 880 881 883 884 886 888 889 891 892 893 895 896 898 898 899 900 901 902 902 903 903
858 852 845 842 846 848 848 848 848 852 855 857 858 860 862 864 866 869 872 874 876 878 880 881 882 883 884 886 888 889 891 892 893 894 896 898 898 900 901 901 902 902 903
861 855 848 844 844 845 845 847 849 849 849 852 854 856 858 860 863 865 868 871 874 876 878 880 881 882 883 884 886 887 888 890 891 892 894 895 897 899 899 900 901 902 903
862 855 850 845 842 840 841 843 844 846 846 845 848 851 854 857 859 862 865 867 870 873 875 877 880 881 882 883 885 886 886 887 888 890 892 893 894 896 898 898 900 901 902
864 858 853 848 844 841 839 840 839 840 842 841 842 846 851 853 855 858 861 863 865 867 870 872 875 878 880 882 883 884 884 884 885 886 888 890 892 893 895 897 897 899 899
868 861 855 850 846 842 838 836 835 834 835 836 836 840 842 846 849 851 855 857 859 863 864 867 870 873 876 878 882 882 882 882 882 882 884 886 888 889 891 893 895 897 897
869 864 859 855 850 846 841 838 835 831 829 831 833 834 836 839 841 844 847 851 854 858 860 863 865 868 870 873 877 879 877 879 878 878 878 879 882 885 887 888 890 892 894
870 867 863 858 853 848 842 837 832 828 827 826 826 824 828 831 833 836 840 844 847 850 853 856 860 863 865 867 870 872 873 867 870 872 872 874 876 878 880 882 883 885 888
874 870 865 860 855 850 844 839 836 833 827 823 822 822 823 824 826 829 833 836 840 843 845 848 853 856 861 862 866 865 865 865 865 865 867 868 870 872 874 875 877 878 880
875 872 867 862 857 852 847 843 838 833 829 823 819 816 816 812 821 822 825 828 831 833 836 839 842 846 851 857 857 860 860 861 862 861 859 864 866 865 867 869 870 872 873
879 874 868 863 859 854 849 844 839 833 827 824 820 816 813 811 810 818 822 823 823 826 828 829 831 836 840 844 850 851 852 853 853 856 857 859 858 860 860 861 863 863 864